Tracking 31027 objects as of 19-Jul-2025
HD Live streaming from Space Station
objects crossing your sky now

ZY-1 02E

Track ZY-1 02E now!
10-day predictions


NORAD ID: 50465
Int'l Code: 2021-131A
Perigee: 779.5 km
Apogee: 782.4 km
Inclination: 98.5 °
Period: 100.3 minutes
Semi major axis: 7151 km
RCS: Unknown
Launch date: December 26, 2021
Source: People's Republic of China (PRC)
Launch site: Taiyaun Space Center, China (TSC)
Your satellite tracking list
THORAD DELTA 1 DEB
Track 1 satellite(s)




NASA's NSSDC Master Catalog

Two Line Element Set (TLE):
1 50465U 21131A   25199.87664702  .00000054  00000-0  33888-4 0  9997
2 50465  98.4764 278.4756 0001975  61.1474 298.9910 14.35378495186602
Source of the keplerian elements: AFSPC